FENGYUN 1C DEB, 30533

Orbit data source: Space-Track

FENGYUN 1C DEB, 30533 is space debris in SSO originally from a launch on Mon, 10 May 1999 UTC launched from the Taiyaun Space Center, China (TSC). Fengyun 1C debris stems from the Chinese weather satellite Fengyun-1C, which was intentionally destroyed by a Chinese anti-satellite missile in 2007. This event dramatically increased the amount of space debris, with thousands of trackable fragments posing hazards to satellites and human spaceflight. The Fengyun 1C debris cloud has become a focal point in discussions about space sustainability and the need for international regulations to prevent the creation of new debris.

Loading next visibility...
Identifier
30533, 1999-025AJX
Orbit
SSO
Country
Flag of CNCN / PRC
Related business
Manufacturer
Unknown
Mission
Spacecraft
Bus & Motor
Unknown
Mass
Unknown
Launch date (UTC)
1999-05-10 (27 years ago)
Launch vehicle
Unknown
Launch site
Taiyaun Space Center, China (TSC)
Object type
Payload
Rocket body
Debris
Shape & HBR
Unknown shape, 0.1 m
Radar Cross Section
Medium (>0.1 m² and <1 m²)

Expand to show TLE details & history
Last TLE update: 14 hours ago

TLE from 14 hours ago
0 FENGYUN 1C DEB
1 30533U 99025AJX 26168.89383971  .00006083  00000-0  12718-2 0  9998
2 30533  98.8429 313.8258 0072552 297.7944 191.0354 14.58575837  5347
Epoch: 2026-06-17T21:27Z
TLE epoch observation values (Epoch: 2026-06-17T21:27:07.750Z)
Latitude
50.58599°
Longitude
-83.24807°
Altitude
756.264 km
Speed
7.454 km/s
True Right ascension
09h 38m 43s
True Declination
50° 25' 02"
Sunlit
Object was in daylight at epoch
Visualization orbit readout
Latitude
Unknown
Longitude
Unknown
Altitude
Unknown
Speed
Unknown
Apparent Right ascension
Unknown
Apparent Declination
Unknown
Sunlit
N/A
Visualization observer readout
Local Sidereal Time
22:33:57
Azimuth
Unknown
Elevation
Unknown
Doppler factor
Unknown
Orbital elements
Apogee altitude
746.206 km
Perigee altitude
643.574 km
Semi-major axis
7,073.027 km
Eccentricity
0.00726
Inclination
98.8429°
RAAN
313.8258°
Arg. of periapsis
297.7944°
True anomaly
190.87766°
Mean anomaly
191.0354°
Eccentric anomaly
190.95639°
Mean motion
3.64868 °/min
Orbital period
98.67 mins
BSTAR
0.0012718
Loading maneuver chart data...
Computing Atmospheric mass density...

Documentation

Showing up to 5 results
|